Simultaneous Nadir Overpasses (SNOs) Predictions

Prediction of SNOs between METOP-A and NOAA-19 Satellite Orbit:

Table of predicted SNOs for the next 14.0 days since TLE Epoch: 10/12/2012
Index Date (METOP-A) Time (METOP-A) METOP-A Lat,Lon Date (NOAA-19) Time (NOAA-19) NOAA-19 Lat,Lon Distance(km) Time Diff (sec)
1 10/22/2012 01:22:44 73.26, 152.18 10/22/2012 01:21:30 73.28, 151.93 8.61 74
2 10/22/2012 02:13:28 -73.18, -40.66 10/22/2012 02:12:34 -73.18, -40.61 1.74 54
3 10/22/2012 03:04:07 73.18, 126.68 10/22/2012 03:03:33 73.18, 126.64 1.48 34
4 10/22/2012 03:54:50 -73.16, -66.05 10/22/2012 03:54:38 -73.13, -66.02 2.96 12
5 10/22/2012 04:45:30 73.11, 101.19 10/22/2012 04:45:37 73.13, 101.23 3.03 7
6 10/22/2012 05:36:12 -73.13, -91.44 10/22/2012 05:36:43 -73.13, -91.54 3.12 31
7 10/22/2012 06:26:52
